SL-16 DEB, 29097

Orbit data source: Space-Track

SL-16 DEB, 29097 is space debris in LEO originally from a launch on Fri, 26 Mar 1993 UTC launched from the Tyuratam Missile And Space Complex (TTMTR). Debris objects in space refer to the collection of defunct objects orbiting the Earth. Examples of debris include non-operational satellites, rocket bodies, and fragments generated from explosions, collisions, or faulty payload assembly.

Loading next visibility...
Identifier
29097, 1993-016AL
Orbit
LEO
Country
Flag of CISCIS
Related business
Manufacturer
Unknown
Mission
Spacecraft
Bus & Motor
Unknown
Mass
Unknown
Launch date (UTC)
1993-03-26 (33 years ago)
Launch vehicle
Unknown
Launch site
Tyuratam Missile And Space Complex (TTMTR)
Object type
Payload
Rocket body
Debris
Shape & HBR
Unknown shape, 0.1 m
Radar Cross Section
Small (<0.1 m²)

Expand to show TLE details & history
Last TLE update: 4 days ago

TLE from 4 days ago
0 SL-16 DEB
1 29097U 93016AL  26169.75979436  .00000056  00000-0  70927-4 0  9990
2 29097  71.0039 172.1079 0127530 242.4439 298.2022 13.94609074274362
Epoch: 2026-06-18T18:14Z
TLE epoch observation values (Epoch: 2026-06-18T18:14:06.232Z)
Latitude
0.51374°
Longitude
171.4075°
Altitude
871.819 km
Speed
7.439 km/s
True Right ascension
23h 27m 43s
True Declination
0° 30' 39"
Sunlit
Object was in daylight at epoch
Visualization orbit readout
Latitude
Unknown
Longitude
Unknown
Altitude
Unknown
Speed
Unknown
Apparent Right ascension
Unknown
Apparent Declination
Unknown
Sunlit
N/A
Visualization observer readout
Local Sidereal Time
08:39:29
Azimuth
Unknown
Elevation
Unknown
Doppler factor
Unknown
Orbital elements
Apogee altitude
1,003.419 km
Perigee altitude
817.516 km
Semi-major axis
7,288.604 km
Eccentricity
0.01275
Inclination
71.0039°
RAAN
172.1079°
Arg. of periapsis
242.4439°
True anomaly
296.90464°
Mean anomaly
298.2022°
Eccentric anomaly
297.55439°
Mean motion
3.488 °/min
Orbital period
103.21 mins
BSTAR
0.000070927
Loading maneuver chart data...
Computing Atmospheric mass density...
Loading historical data...
Loading historical data...
Loading historical data...
Loading historical data...
Loading historical data...
Loading historical data...
Loading historical data...

Documentation

Showing up to 5 results
|